User: anonymous   Login
Location: Okie-Tex Star Party
(36.8978°N, 102.9520°W)
Time: 13:36:26
(UTC-05:00)
Language:

Hamsat - Orbit

View from above orbital plane
View from above orbital plane
View from above satellite
View from above satellite

Ground track
Ground track

The orbit data is extracted from the following two-line orbital elements,

1 28650U 05017B   18141.15133466  .00000205  00000-0  27472-4 0  9991
2 28650  97.6969 109.9988 0025029  92.0955 268.3129 14.88926117706451
Epoch (UTC): 21 May 2018 03:37:55
Eccentricity: 0.0025029
inclination: 97.6969°
perigee height: 584 km
apogee height: 619 km
right ascension of ascending node: 109.9988°
argument of perigee: 92.0955°
revolutions per day: 14.88926117
mean anomaly at epoch: 268.3129°
orbit number at epoch: 70645

The dashed part of the orbit path shows where the satellite is in the earth's shadow,  

DLR